When you browse on this site, cookies collect data to enhance your experience and personalize the content and advertising you see.
Visit our Privacy Policy to learn more. By continuing to use the site, you agree to this use of cookies and data.
  • In Lithuania
  • List of Countries
  • For 7 days
  • Water Temperature
  • Weather Map
  • Weather Widgets
  • user-avatar
    Login

    Hourly Weather Rozogi

    Today, 21 August, Wednesday

    Time Temperature Precipitation Wind Pressure Humidity
    00:00 +19°C° 0 mm 3 mps 754 mmHg 68%
    01:00 +19°C° 0 mm 3 mps 754 mmHg 72%
    02:00 +18°C° 2.2 mm 3 mps 754 mmHg 79%
    03:00 +18°C° 2.2 mm 4 mps 754 mmHg 86%
    04:00 +17°C° 2.2 mm 4 mps 753 mmHg 94%
    05:00 +15°C° 3.5 mm 5 mps 753 mmHg 93%
    06:00 +14°C° 3.5 mm 6 mps 754 mmHg 91%
    07:00 +14°C° 3.5 mm 6 mps 754 mmHg 90%
    08:00 +14°C° 0.2 mm 6 mps 754 mmHg 90%
    09:00 +14°C° 0.2 mm 5 mps 754 mmHg 90%
    10:00 +14°C° 0.2 mm 5 mps 755 mmHg 91%
    11:00 +14°C° 0 mm 4 mps 755 mmHg 88%
    12:00 +15°C° 0 mm 4 mps 756 mmHg 86%
    13:00 +16°C° 0 mm 3 mps 757 mmHg 84%
    14:00 +17°C° 0 mm 3 mps 757 mmHg 79%
    15:00 +18°C° 0 mm 3 mps 757 mmHg 73%
    16:00 +19°C° 0 mm 4 mps 757 mmHg 68%
    17:00 +18°C° 0 mm 2 mps 757 mmHg 74%
    18:00 +16°C° 0 mm 1 mps 757 mmHg 80%
    19:00 +14°C° 0 mm 0 mps 758 mmHg 86%
    20:00 +15°C° 0 mm 1 mps 758 mmHg 88%
    21:00 +14°C° 0 mm 1 mps 758 mmHg 89%
    22:00 +14°C° 0 mm 1 mps 758 mmHg 91%
    23:00 +14°C° 0 mm 1 mps 758 mmHg 92%

    Tomorrow, 22 August, Thursday

    Time Temperature Precipitation Wind Pressure Humidity
    00:00 +13°C° 0 mm 1 mps 759 mmHg 93%
    01:00 +13°C° 0 mm 1 mps 759 mmHg 94%
    02:00 +13°C° 0 mm 1 mps 759 mmHg 94%
    03:00 +13°C° 0 mm 1 mps 759 mmHg 93%
    04:00 +12°C° 0 mm 1 mps 759 mmHg 93%
    05:00 +14°C° 0 mm 1 mps 759 mmHg 88%
    06:00 +15°C° 0 mm 1 mps 759 mmHg 82%
    07:00 +18°C° 0 mm 1 mps 760 mmHg 76%
    08:00 +19°C° 0 mm 1 mps 760 mmHg 69%
    09:00 +21°C° 0 mm 1 mps 760 mmHg 61%
    10:00 +22°C° 0 mm 1 mps 760 mmHg 54%
    11:00 +23°C° 0 mm 1 mps 760 mmHg 51%
    12:00 +23°C° 0 mm 1 mps 760 mmHg 49%
    13:00 +24°C° 0 mm 1 mps 759 mmHg 46%
    14:00 +24°C° 0 mm 1 mps 759 mmHg 47%
    15:00 +24°C° 0 mm 1 mps 759 mmHg 47%
    16:00 +24°C° 0 mm 1 mps 759 mmHg 48%
    17:00 +22°C° 0 mm 1 mps 759 mmHg 54%
    18:00 +20°C° 0 mm 1 mps 759 mmHg 61%
    19:00 +16°C° 0 mm 0 mps 759 mmHg 68%
    20:00 +16°C° 0 mm 1 mps 759 mmHg 71%
    21:00 +16°C° 0 mm 1 mps 759 mmHg 73%
    22:00 +15°C° 0 mm 1 mps 759 mmHg 76%
    23:00 +14°C° 0 mm 1 mps 759 mmHg 77%

    Day after tomorrow, 23 August, Friday

    Time Temperature Precipitation Wind Pressure Humidity
    00:00 +14°C° 0 mm 1 mps 759 mmHg 79%
    01:00 +14°C° 0 mm 1 mps 760 mmHg 80%
    02:00 +13°C° 0 mm 1 mps 759 mmHg 81%
    03:00 +13°C° 0 mm 1 mps 759 mmHg 81%
    04:00 +13°C° 0 mm 1 mps 759 mmHg 82%
    05:00 +14°C° 0 mm 1 mps 759 mmHg 77%
    06:00 +16°C° 0 mm 1 mps 759 mmHg 72%
    07:00 +19°C° 0 mm 1 mps 760 mmHg 67%
    08:00 +20°C° 0 mm 1 mps 760 mmHg 62%
    09:00 +22°C° 0 mm 1 mps 760 mmHg 57%
    10:00 +24°C° 0 mm 1 mps 760 mmHg 51%
    11:00 +24°C° 0 mm 1 mps 760 mmHg 49%
    12:00 +25°C° 0 mm 1 mps 759 mmHg 46%
    13:00 +25°C° 0 mm 1 mps 759 mmHg 43%
    14:00 +25°C° 0 mm 1 mps 759 mmHg 44%
    15:00 +25°C° 0 mm 1 mps 759 mmHg 45%
    16:00 +25°C° 0 mm 2 mps 758 mmHg 46%
    17:00 +23°C° 0 mm 1 mps 758 mmHg 53%
    18:00 +21°C° 0 mm 1 mps 758 mmHg 59%
    19:00 +19°C° 0 mm 1 mps 758 mmHg 65%
    20:00 +18°C° 0 mm 1 mps 758 mmHg 67%
    21:00 +16°C° 0 mm 1 mps 758 mmHg 69%
    22:00 +16°C° 0 mm 1 mps 758 mmHg 71%
    23:00 +15°C° 0 mm 1 mps 758 mmHg 73%

    24 August, Saturday

    Time Temperature Precipitation Wind Pressure Humidity
    00:00 +15°C° 0 mm 1 mps 758 mmHg 75%
    01:00 +14°C° 0 mm 1 mps 758 mmHg 78%
    02:00 +14°C° 0 mm 1 mps 758 mmHg 80%
    03:00 +14°C° 0 mm 1 mps 758 mmHg 81%
    04:00 +13°C° 0 mm 1 mps 758 mmHg 83%
    05:00 +15°C° 0 mm 1 mps 757 mmHg 79%
    06:00 +16°C° 0 mm 1 mps 757 mmHg 74%
    07:00 +19°C° 0 mm 1 mps 757 mmHg 69%
    08:00 +21°C° 0 mm 1 mps 757 mmHg 64%
    09:00 +21°C° 0 mm 2 mps 757 mmHg 58%
    10:00 +24°C° 0 mm 2 mps 758 mmHg 52%
    11:00 +25°C° 0 mm 2 mps 757 mmHg 50%
    12:00 +25°C° 0 mm 2 mps 757 mmHg 47%
    13:00 +26°C° 0 mm 3 mps 757 mmHg 45%
    14:00 +26°C° 0 mm 2 mps 756 mmHg 45%
    15:00 +26°C° 0 mm 2 mps 756 mmHg 46%
    16:00 +25°C° 0 mm 2 mps 756 mmHg 46%
    17:00 +23°C° 0 mm 2 mps 756 mmHg 52%
    18:00 +21°C° 0 mm 1 mps 756 mmHg 59%
    19:00 +19°C° 0 mm 1 mps 756 mmHg 65%
    20:00 +19°C° 0 mm 1 mps 756 mmHg 66%
    21:00 +18°C° 0 mm 1 mps 756 mmHg 68%
    22:00 +16°C° 0 mm 1 mps 756 mmHg 69%
    23:00 +16°C° 0 mm 1 mps 756 mmHg 72%

    25 August, Sunday

    Time Temperature Precipitation Wind Pressure Humidity
    00:00 +15°C° 0 mm 1 mps 756 mmHg 74%
    01:00 +15°C° 0 mm 1 mps 756 mmHg 76%
    02:00 +14°C° 0 mm 1 mps 756 mmHg 78%
    03:00 +14°C° 0 mm 1 mps 756 mmHg 79%
    04:00 +14°C° 0 mm 2 mps 756 mmHg 81%
    05:00 +15°C° 0 mm 2 mps 756 mmHg 77%
    06:00 +16°C° 0 mm 2 mps 756 mmHg 73%
    07:00 +18°C° 0 mm 2 mps 756 mmHg 70%
    08:00 +20°C° 0 mm 3 mps 756 mmHg 64%
    09:00 +21°C° 0 mm 3 mps 756 mmHg 58%
    10:00 +23°C° 0 mm 4 mps 757 mmHg 52%
    11:00 +25°C° 0 mm 4 mps 756 mmHg 51%
    12:00 +25°C° 0 mm 4 mps 756 mmHg 49%
    13:00 +26°C° 0 mm 4 mps 756 mmHg 48%
    14:00 +26°C° 0 mm 4 mps 755 mmHg 49%
    15:00 +26°C° 0 mm 3 mps 755 mmHg 50%
    16:00 +25°C° 0 mm 3 mps 755 mmHg 51%
    17:00 +22°C° 0 mm 3 mps 755 mmHg 58%
    18:00 +20°C° 0 mm 3 mps 755 mmHg 65%
    19:00 +18°C° 0 mm 3 mps 755 mmHg 72%
    20:00 +18°C° 0 mm 3 mps 755 mmHg 73%
    21:00 +17°C° 0 mm 3 mps 755 mmHg 74%
    22:00 +16°C° 0 mm 3 mps 755 mmHg 75%
    23:00 +16°C° 0 mm 3 mps 755 mmHg 77%

    26 August, Monday

    Time Temperature Precipitation Wind Pressure Humidity
    00:00 +14°C° 0 mm 3 mps 755 mmHg 79%
    01:00 +14°C° 0 mm 3 mps 755 mmHg 81%
    02:00 +14°C° 0 mm 3 mps 755 mmHg 81%
    03:00 +14°C° 0 mm 3 mps 754 mmHg 81%
    04:00 +13°C° 0 mm 3 mps 754 mmHg 81%
    05:00 +14°C° 0 mm 3 mps 754 mmHg 78%
    06:00 +16°C° 0 mm 3 mps 754 mmHg 75%
    07:00 +17°C° 0 mm 3 mps 754 mmHg 72%
    08:00 +19°C° 0 mm 4 mps 754 mmHg 68%
    09:00 +21°C° 0 mm 4 mps 754 mmHg 65%
    10:00 +23°C° 0 mm 4 mps 754 mmHg 61%
    11:00 +25°C° 0 mm 4 mps 753 mmHg 58%
    12:00 +26°C° 0 mm 5 mps 753 mmHg 55%
    13:00 +27°C° 0 mm 5 mps 752 mmHg 53%
    14:00 +27°C° 0 mm 5 mps 752 mmHg 53%
    15:00 +28°C° 0 mm 5 mps 752 mmHg 54%
    16:00 +28°C° 0 mm 4 mps 751 mmHg 55%
    17:00 +26°C° 0 mm 4 mps 751 mmHg 62%
    18:00 +24°C° 0 mm 3 mps 751 mmHg 69%
    19:00 +21°C° 0 mm 3 mps 750 mmHg 76%
    20:00 +21°C° 0 mm 3 mps 750 mmHg 77%
    21:00 +20°C° 0 mm 3 mps 750 mmHg 78%
    22:00 +20°C° 0 mm 3 mps 750 mmHg 80%
    23:00 +19°C° 0 mm 3 mps 750 mmHg 82%
    Show more